ONEWEB-0019, 45449

Orbit data source: Space-Track

ONEWEB-0019, 45449 is a payload satellite in LEO that was launched on Sat, 21 Mar 2020 UTC via a SOYUZ-2-1B launch vehicle from the Tyuratam Missile And Space Complex (TTMTR). Payload-class satellites include a variety of spacecraft equipped with specific instruments for various scientific and technological missions. These include communications satellites like Starlink; space stations such as the ISS; scientific satellites like the Hubble; Earth observation satellites from companies like Planet Labs, Umbra, and HawkEye 360; GPS; miniature CubeSats for education and research; and military/defense satellites.

Loading next visibility...
Identifier
45449, 2020-020AB
Orbit
LEO
Last TLE update
11 hours ago
Origin
Manufacturer
One Web
Mission
Operational Commercial Communications
Bus & Motor
ARROW, Unknown motor
Mass
148 kg wet, ~140 kg dry
Launch date (UTC)
2020-03-21 (5 years ago)
Launch vehicle
SOYUZ-2-1B
Launch site
Tyuratam Missile And Space Complex (TTMTR)
Object type
Payload
Rocket body
Debris
Shape & HBR
Trap Box + 2 Pan, 5 m
Radar Cross Section
2.957 m², Large (>1 m²)

Expand to show TLE details & history

TLE from 11 hours ago
0 ONEWEB-0019
1 45449U 20020AB  25141.59251960 -.00000369  00000-0 -10760-2 0  9996
2 45449  87.8829  99.1247 0001951  83.8222 276.3128 13.11415617251213
Epoch: 2025-05-21T14:13Z
TLE epoch observation values (Epoch: 2025-05-21T14:13:13.693Z)
Latitude
-0.00004°
Longitude
6.34343°
Altitude
1,220.414 km
Speed
7.244 km/s
True Right ascension
06h 36m 29s
True Declination
0° 00' 00"
Sunlit
Object was in daylight at epoch
Visualization orbit readout
Latitude
-58.26884°
Longitude
2.84458°
Altitude
1,241.432 km
Speed
7.233 km/s
Apparent Right ascension
01h 23m 03s
Apparent Declination
-68° 59' 15"
Sunlit
Object is in daylight
Visualization observer readout
Local Sidereal Time
09:53:50
Azimuth
206.252° SW
Elevation
-50.099°
Doppler factor
1
Orbital elements
Apogee altitude
1,216.287 km
Perigee altitude
1,213.325 km
Semi-major axis
7,592.943 km
Eccentricity
0.0002
Inclination
87.8829°
RAAN
99.1247°
Arg. of periapsis
83.8222°
True anomaly
Unknown
Mean anomaly
276.3128°
Eccentric anomaly
Unknown
Mean motion
3.28041 °/min
Orbital period
109.74 mins
BSTAR
-0.001076
Loading maneuver chart data...
Loading SW <> Apogee altitude chart data...
Loading historical data...
Loading historical data...
Loading historical data...
Loading historical data...
Loading historical data...
Loading historical data...
Loading historical data...

ONEWEB-0019 Visibility forecast

Observer location: undefined°, undefined°

Span
Click to sort rows by Start time (UTC) header in descending order
Start Az.
Max El. time (UTC)
Max El. Az.
Max El.
End time (UTC)
End Az.
13 mins2025-05-22 09:08:39.457Z4.727° NNE2025-05-22 09:14:39.457Z93.222° ESE43.861°2025-05-22 09:21:39.457Z173.26° S
7 mins2025-05-22 11:00:39.457Z315.022° NNW2025-05-22 11:03:39.457Z286.186° WNW18.312°2025-05-22 11:07:39.457Z249.872° W
4 mins2025-05-22 19:42:39.457Z85.54° E2025-05-22 19:44:39.457Z68.41° E12.804°2025-05-22 19:46:39.457Z51.539° ENE
12 mins2025-05-22 21:27:39.457Z173.503° S2025-05-22 21:32:39.457Z138.567° SSE44.298°2025-05-22 21:39:39.457Z2.85° NNE
7 mins2025-05-22 23:20:39.457Z257.736° W2025-05-22 23:23:39.457Z284.769° WNW16.302°2025-05-22 23:27:39.457Z320.349° NNW
|